Regional Weather Roundup
Issued by NWS

Home | Current Version | Previous Version | Graphics & Text | Print | Product List | Glossary On
Versions: 1 2 3 4 5 6 7 8 9 10 11 12 13 14 15 16 17 18 19 20 21 22 23 24 25 26 27 28 29 30 31 32 33 34 35 36 37 38 39 40 41 42 43 44 45 46 47 48 49 50
000
ASUS44 KMEG 041700
RWRTN
TENNESSEE HOURLY STATE WEATHER ROUNDUP
NATIONAL WEATHER SERVICE MEMPHIS TN
1200 PM CDT WED MAY 04 2016

TNZ002-004-019-021-049-052-054-088>092-041800-
WEST TENNESSEE

CITY           SKY/WX    TMP DP  RH WIND       PRES   REMARKS
MEMPHIS INTL   MOSUNNY   73  52  47 W14G22    29.84F
NWS MEMPHIS      N/A     70 N/A N/A MISG        N/A
JACKSON        SUNNY     71  50  47 W13G26    29.79F
DYERSBURG      MOSUNNY   72  52  49 SW16G25   29.76F
UNION CITY     PTSUNNY   66  50  55 NW15      29.76R
LEXINGTON      MOSUNNY   72  45  37 W13       29.77F
$$

TNZ008-025-027-028-033-062-065-066-041800-
NORTH MIDDLE TENNESSEE

CITY           SKY/WX    TMP DP  RH WIND       PRES   REMARKS
NASHVILLE      PTSUNNY   69  44  40 W7        29.76F
CLARKSVILLE    CLOUDY    63  48  58 W8        29.75S
COOKEVILLE     MOSUNNY   66  46  48 VRB3      29.77F
CROSSVILLE     MOSUNNY   62  40  44 MISG      29.80F
$$

TNZ061-075-076-078-094-096-097-041800-
SOUTH MIDDLE TENNESSEE

CITY           SKY/WX    TMP DP  RH WIND       PRES   REMARKS
TULLAHOMA      MOSUNNY   66  43  42 NW10      29.81F
WINCHESTER     MOSUNNY   64  45  48 W6        29.81F
MCMINNVILLE    MOSUNNY   66  45  45 W14       29.79F
COLUMBIA       SUNNY     70  46  43 W10       29.77F
SHELBYVILLE    MOSUNNY   72  46  40 W14       29.79F
$$

TNZ017-018-042-046-047-041800-
NORTHEAST TENNESSEE

CITY           SKY/WX    TMP DP  RH WIND       PRES   REMARKS
TRI CITIES     CLOUDY    60  43  53 SW9       29.76F
$$

TNZ012-013-036-069-073-074-041800-
CENTRAL EAST TENNESSEE

CITY           SKY/WX    TMP DP  RH WIND       PRES   REMARKS
KNOXVILLE      MOSUNNY   64  41  42 W10       29.78F
OAK RIDGE      MOSUNNY   66  39  37 VRB3      29.78F
GATLINBURG     MOSUNNY   64  41  42 W8        29.77F
$$

TNZ083-085-099-041800-
SOUTHEAST TENNESSEE

CITY           SKY/WX    TMP DP  RH WIND       PRES   REMARKS
CHATTANOOGA    MOSUNNY   68  41  37 W8G20     29.80F
$$

SKY/WX REPORTED AS FAIR MEANS FEW OR NO CLOUDS BELOW
12 THOUSAND FEET.





USA.gov is the U.S. government's official web portal to all federal, state and local government web resources and services.